�N����,����,�~����,�C��,���x,�C��,����,���ϕ���,�ő�u�ԕ���,�ő厞����,���˗�,�I�_���x,�n�����x,�ő啗���N��,DTYPE
"23/08/19","00:10",0.0,26.5,89.1,1005.2,335.7,0.8,1.4,338.7,0.00,24.6,26.7,"00:02:56",1
"23/08/19","00:20",0.0,26.4,89.4,1005.2,299.6,0.7,1.7,321.7,0.00,24.6,26.7,"00:19:28",1
"23/08/19","00:30",0.0,26.4,89.6,1005.2,296.0,0.8,1.4,319.2,0.00,24.6,26.4,"00:23:20",1
"23/08/19","00:40",0.0,26.4,89.7,1005.5,283.1,0.6,1.0,297.6,0.00,24.6,26.7,"00:30:40",1
"23/08/19","00:50",0.0,26.4,89.7,1005.5,300.3,0.7,1.4,325.1,0.00,24.6,26.6,"00:44:48",1
"23/08/19","01:00",0.0,26.3,89.8,1005.2,302.5,0.8,1.4,297.7,0.00,24.5,26.7,"00:59:04",1
"23/08/19","01:10",0.0,26.3,89.9,1005.2,313.1,0.7,1.2,321.6,0.00,24.5,26.6,"01:01:28",1
"23/08/19","01:20",0.0,26.3,90.0,1005.2,313.2,0.8,1.4,334.5,0.00,24.6,26.5,"01:14:24",1
"23/08/19","01:30",0.0,26.3,90.0,1005.5,309.6,0.8,2.4,336.6,0.00,24.6,26.7,"01:28:24",1
"23/08/19","01:40",0.0,26.2,90.0,1005.2,305.1,0.8,1.7,334.5,0.00,24.5,26.6,"01:31:12",1
"23/08/19","01:50",0.0,26.2,90.1,1005.2,331.7,0.6,1.0,319.1,0.00,24.5,26.7,"01:42:00",1
"23/08/19","02:00",0.0,26.1,90.2,1005.5,323.7,0.6,1.0,354.8,0.00,24.4,26.4,"01:51:20",1
"23/08/19","02:10",0.0,26.0,90.3,1005.2,287.8,0.5,1.2,337.5,0.00,24.3,26.6,"02:03:28",1
"23/08/19","02:20",0.0,26.0,90.4,1005.7,285.4,0.7,1.4,303.9,0.00,24.3,26.5,"02:14:08",1
"23/08/19","02:30",0.0,26.0,90.6,1005.7,283.6,0.7,1.7,328.9,0.00,24.4,26.6,"02:29:20",1
"23/08/19","02:40",0.0,26.1,90.7,1005.5,314.7,1.0,2.0,319.6,0.00,24.5,26.4,"02:36:24",1
"23/08/19","02:50",0.0,26.2,90.7,1006.2,324.6,0.7,1.3,340.5,0.00,24.6,26.4,"02:41:28",1
"23/08/19","03:00",0.0,26.2,90.8,1005.7,332.7,0.6,1.2,340.3,0.00,24.6,26.5,"02:52:16",1
"23/08/19","03:10",0.0,26.2,90.9,1005.7,310.5,0.8,1.1,313.7,0.00,24.6,26.6,"03:04:00",1
"23/08/19","03:20",0.0,26.1,91.1,1005.5,299.3,0.7,1.2,307.2,0.00,24.6,26.4,"03:16:00",1
"23/08/19","03:30",0.0,26.2,91.1,1005.7,286.9,0.6,1.0,312.6,0.00,24.7,26.6,"03:23:12",1
"23/08/19","03:40",0.0,26.2,91.2,1006.0,291.7,0.6,1.1,309.2,0.00,24.7,26.5,"03:35:36",1
"23/08/19","03:50",0.0,26.3,91.2,1005.5,294.0,0.7,1.2,316.6,0.00,24.8,26.5,"03:43:20",1
"23/08/19","04:00",0.0,26.2,91.3,1005.2,289.3,0.7,1.0,313.0,0.00,24.7,26.5,"03:50:40",1
"23/08/19","04:10",0.0,26.3,91.3,1005.5,294.1,0.7,1.3,324.8,0.00,24.8,26.5,"04:00:16",1
"23/08/19","04:20",0.0,26.3,91.3,1005.5,308.8,1.0,1.4,314.0,0.00,24.8,26.5,"04:17:28",1
"23/08/19","04:30",0.0,26.3,91.3,1005.7,325.7,1.0,1.4,336.2,0.00,24.8,26.6,"04:25:36",1
"23/08/19","04:40",0.0,26.2,91.3,1005.7,297.4,0.8,1.4,319.8,0.00,24.7,26.4,"04:34:08",1
"23/08/19","04:50",0.0,26.1,91.3,1005.5,294.8,0.8,1.1,315.0,0.00,24.6,26.3,"04:42:48",1
"23/08/19","05:00",0.0,25.9,91.3,1005.5,301.7,0.7,1.0,306.4,0.00,24.4,26.4,"04:53:36",1
"23/08/19","05:10",0.0,25.9,91.5,1006.2,289.5,0.7,1.0,293.1,0.00,24.4,26.4,"05:07:00",1
"23/08/19","05:20",0.0,25.8,91.6,1005.7,313.9,0.8,1.6,323.0,0.00,24.4,26.2,"05:19:52",1
"23/08/19","05:30",0.0,25.9,91.7,1005.7,301.9,1.0,1.6,328.1,0.00,24.5,26.3,"05:24:48",1
"23/08/19","05:40",0.0,26.0,91.8,1006.0,286.5,0.6,1.1,317.4,0.00,24.6,26.6,"05:33:12",1
"23/08/19","05:50",0.0,26.1,91.8,1005.7,311.4,1.0,1.8,339.0,0.00,24.7,26.5,"05:42:48",1
"23/08/19","06:00",0.0,26.2,91.8,1006.0,306.2,0.7,1.1,333.0,0.01,24.8,26.3,"05:57:04",1
"23/08/19","06:10",0.0,26.4,91.8,1006.0,324.4,0.8,1.2,319.4,0.01,25.0,26.3,"06:00:16",1
"23/08/19","06:20",0.0,26.6,91.8,1006.2,324.8,0.8,1.2,344.9,0.03,25.2,26.3,"06:10:08",1
"23/08/19","06:30",0.0,26.8,91.8,1006.0,319.2,0.7,1.2,333.4,0.03,25.4,26.2,"06:20:40",1
"23/08/19","06:40",0.0,26.9,91.7,1006.0,312.8,0.7,1.0,314.0,0.03,25.5,26.0,"06:30:08",1
"23/08/19","06:50",0.0,27.0,91.5,1006.2,316.6,0.6,1.4,340.1,0.04,25.5,26.1,"06:48:48",1
"23/08/19","07:00",0.0,27.2,91.1,1006.2,323.9,0.7,1.2,331.3,0.03,25.7,26.2,"06:50:24",1
"23/08/19","07:10",0.0,27.3,90.8,1006.0,336.5,0.8,1.3,339.4,0.03,25.7,26.1,"07:02:56",1
"23/08/19","07:20",0.0,27.6,90.5,1006.0,337.5,0.3,1.1,333.0,0.03,25.9,26.2,"07:12:24",1
"23/08/19","07:30",0.0,27.8,90.1,1006.0,304.9,0.2,1.0,341.5,0.05,26.1,26.4,"07:23:04",1
"23/08/19","07:40",0.0,28.1,89.2,1005.7,314.4,0.3,1.6,325.4,0.10,26.2,26.3,"07:39:52",1
"23/08/19","07:50",0.0,28.7,88.2,1005.5,309.0,0.5,1.3,325.6,0.12,26.6,26.2,"07:40:16",1
"23/08/19","08:00",0.0,28.9,87.0,1005.5,263.1,0.3,1.1,227.3,0.10,26.6,26.1,"07:55:28",1
"23/08/19","08:10",0.0,29.2,85.9,1005.7,188.6,0.1,0.6,291.5,0.09,26.6,26.3,"08:01:12",1
"23/08/19","08:20",0.0,29.4,84.6,1006.0,181.4,0.2,0.4,144.0,0.08,26.6,26.3,"08:10:16",1
"23/08/19","08:30",0.0,29.5,83.4,1006.0,287.6,0.1,0.6,345.2,0.09,26.4,26.5,"08:22:24",1
"23/08/19","08:40",0.0,29.7,81.8,1006.2,321.5,0.5,1.0,357.8,0.11,26.3,26.4,"08:35:28",1
"23/08/19","08:50",0.0,29.8,80.3,1006.4,336.3,0.6,1.3,356.6,0.12,26.1,26.3,"08:44:40",1
"23/08/19","09:00",0.0,29.9,79.5,1006.4,325.0,0.5,1.6,351.2,0.11,26.0,26.3,"08:53:20",1
"23/08/19","09:10",0.0,30.1,78.4,1006.4,341.0,0.7,1.8,349.3,0.16,26.0,26.4,"09:09:36",1
"23/08/19","09:20",0.0,30.9,76.9,1007.4,343.0,0.5,1.2,46.2,0.26,26.4,26.4,"09:10:40",1
"23/08/19","09:30",0.0,31.1,74.8,1007.4,352.6,1.0,2.5,347.5,0.31,26.1,26.6,"09:26:00",1
"23/08/19","09:40",0.0,31.3,73.3,1007.8,16.3,0.8,2.0,355.8,0.25,26.0,26.4,"09:39:04",1
"23/08/19","09:50",0.0,32.0,72.5,1007.6,337.5,0.6,1.7,354.8,0.36,26.5,26.6,"09:47:28",1
"23/08/19","10:00",0.0,32.7,71.5,1008.1,51.8,0.8,2.2,37.2,0.43,26.9,26.5,"09:53:44",1
"23/08/19","10:10",0.0,32.8,69.5,1008.3,354.4,1.1,2.8,358.3,0.49,26.5,26.7,"10:07:44",1
"23/08/19","10:20",0.0,32.8,69.5,1008.6,328.3,1.2,2.8,359.8,0.54,26.5,26.7,"10:15:52",1
"23/08/19","10:30",0.0,33.6,67.1,1008.8,61.8,1.0,2.5,355.6,0.54,26.7,26.9,"10:20:08",1
"23/08/19","10:40",0.0,34.2,67.6,1008.6,341.1,1.2,2.5,357.9,0.56,27.4,27.0,"10:32:16",1
"23/08/19","10:50",0.0,34.1,66.3,1008.8,230.1,1.2,3.1,229.5,0.53,27.0,26.9,"10:46:08",1
"23/08/19","11:00",0.0,34.0,65.6,1008.8,334.8,1.1,3.1,344.3,0.51,26.7,27.0,"10:58:56",1
"23/08/19","11:10",0.0,33.9,63.8,1009.3,175.3,1.1,2.5,224.0,0.44,26.1,27.1,"11:02:00",1
"23/08/19","11:20",0.0,33.8,65.1,1008.3,196.5,1.5,4.0,223.1,0.41,26.4,26.9,"11:18:24",1
"23/08/19","11:30",0.0,34.4,64.9,1008.3,181.0,1.1,3.3,216.3,0.56,26.9,26.9,"11:21:44",1
"23/08/19","11:40",0.0,35.2,62.2,1008.6,205.7,1.0,3.3,225.2,0.57,26.9,27.2,"11:39:52",1
"23/08/19","11:50",0.0,35.1,61.0,1008.6,303.0,1.3,2.9,228.1,0.58,26.5,27.3,"11:40:16",1
"23/08/19","12:00",0.0,35.3,62.1,1008.3,178.5,1.0,2.9,231.2,0.59,27.0,27.3,"11:50:24",1
"23/08/19","12:10",0.0,35.9,60.0,1008.3,176.0,1.0,2.9,223.3,0.58,27.0,27.6,"12:09:04",1
"23/08/19","12:20",0.0,35.9,58.3,1008.3,214.3,1.1,3.4,240.8,0.59,26.5,27.8,"12:10:48",1
"23/08/19","12:30",0.0,35.4,57.4,1007.8,231.0,1.6,3.6,234.9,0.57,25.7,27.7,"12:29:28",1
"23/08/19","12:40",0.0,35.5,60.1,1007.8,236.0,1.6,3.7,231.9,0.55,26.6,27.7,"12:31:04",1
"23/08/19","12:50",0.0,35.9,59.0,1007.6,223.1,1.2,2.5,332.9,0.53,26.7,27.8,"12:43:36",1
"23/08/19","13:00",0.0,35.8,57.2,1007.6,237.2,1.3,4.3,234.1,0.52,26.0,27.9,"12:59:04",1
"23/08/19","13:10",0.0,35.3,56.0,1007.4,232.4,1.2,2.8,238.2,0.36,25.2,28.0,"13:08:00",1
"23/08/19","13:20",0.0,34.8,59.4,1006.7,271.6,0.8,2.1,219.7,0.19,25.8,27.8,"13:11:36",1
"23/08/19","13:30",0.0,35.5,57.8,1006.4,245.6,1.2,2.7,223.3,0.51,25.9,28.0,"13:28:08",1
"23/08/19","13:40",0.0,36.1,55.2,1006.7,280.5,1.0,3.2,232.1,0.51,25.7,28.2,"13:39:12",1
"23/08/19","13:50",0.0,36.5,58.1,1006.7,202.7,1.1,2.8,222.9,0.48,27.0,28.3,"13:42:56",1
"23/08/19","14:00",0.0,36.3,55.6,1007.1,238.5,1.6,3.6,237.0,0.47,26.0,28.3,"13:51:52",1
"23/08/19","14:10",0.0,36.2,55.4,1006.4,224.0,2.0,5.0,220.3,0.47,25.9,28.2,"14:08:00",1
"23/08/19","14:20",0.0,36.2,54.9,1006.7,225.7,2.0,6.0,214.3,0.43,25.7,28.5,"14:18:16",1
"23/08/19","14:30",0.0,36.2,55.3,1006.4,244.5,1.7,4.0,238.6,0.43,25.8,28.4,"14:21:12",1
"23/08/19","14:40",0.0,36.5,56.6,1006.4,237.8,1.2,3.3,223.7,0.35,26.5,28.6,"14:37:52",1
"23/08/19","14:50",0.0,36.7,55.4,1006.2,273.8,1.3,3.7,220.2,0.40,26.3,28.7,"14:47:36",1
"23/08/19","15:00",0.0,36.2,55.8,1006.2,318.3,1.6,4.8,5.2,0.33,26.0,28.6,"14:55:44",1
"23/08/19","15:10",0.0,36.3,56.7,1006.0,259.6,1.6,4.7,232.0,0.35,26.4,28.6,"15:00:02",1
"23/08/19","15:20",0.0,36.1,56.8,1006.0,234.7,2.2,4.4,217.7,0.32,26.2,28.7,"15:10:08",1
"23/08/19","15:30",0.0,36.2,56.8,1006.0,238.6,1.6,3.6,233.0,0.29,26.3,29.0,"15:24:24",1
"23/08/19","15:40",0.0,36.2,55.4,1006.0,252.9,1.3,3.9,242.3,0.27,25.9,28.8,"15:33:52",1
"23/08/19","15:50",0.0,36.1,56.4,1005.5,239.8,1.8,4.4,237.7,0.25,26.1,28.8,"15:43:44",1
"23/08/19","16:00",0.0,36.7,55.5,1005.5,242.6,0.8,3.4,234.2,0.23,26.4,28.9,"15:50:16",1
"23/08/19","16:10",0.0,36.3,54.9,1005.0,323.0,1.5,3.2,351.1,0.21,25.8,28.9,"16:00:56",1
"23/08/19","16:20",0.0,36.2,53.5,1005.2,287.8,1.2,2.9,326.3,0.19,25.3,28.8,"16:18:00",1
"23/08/19","16:30",0.0,36.1,53.9,1005.0,317.7,1.2,2.4,321.3,0.16,25.3,29.0,"16:21:36",1
"23/08/19","16:40",0.0,36.2,54.2,1005.2,284.9,1.1,2.6,234.4,0.14,25.5,28.8,"16:32:16",1
"23/08/19","16:50",0.0,36.1,55.0,1005.0,257.8,1.1,3.7,234.9,0.13,25.7,29.0,"16:45:36",1
"23/08/19","17:00",0.0,35.8,55.6,1005.0,305.7,1.3,2.9,308.9,0.10,25.6,28.8,"16:50:40",1
"23/08/19","17:10",0.0,35.7,56.6,1005.0,282.2,1.0,2.2,234.2,0.08,25.8,29.0,"17:00:02",1
"23/08/19","17:20",0.0,35.5,57.2,1004.5,285.8,1.2,3.7,344.4,0.07,25.8,28.9,"17:14:48",1
"23/08/19","17:30",0.0,35.2,57.6,1004.5,254.4,1.1,2.8,231.3,0.05,25.6,29.1,"17:20:24",1
"23/08/19","17:40",0.0,35.0,58.5,1004.8,253.0,0.8,2.5,213.9,0.04,25.7,29.1,"17:31:28",1
"23/08/19","17:50",0.0,34.6,59.2,1004.8,323.0,0.8,1.8,311.0,0.02,25.5,28.8,"17:43:04",1
"23/08/19","18:00",0.0,34.2,62.5,1004.5,332.9,1.1,2.9,336.4,0.00,26.0,28.8,"17:55:52",1
"23/08/19","18:10",0.0,33.6,64.7,1004.1,344.9,1.2,2.2,339.1,0.00,26.1,29.0,"18:01:44",1
"23/08/19","18:20",0.0,33.2,67.7,1004.3,354.5,1.1,1.7,352.9,0.00,26.5,28.8,"18:10:40",1
"23/08/19","18:30",0.0,32.2,70.9,1004.1,353.9,1.0,1.6,347.0,0.00,26.3,28.7,"18:20:48",1
"23/08/19","18:40",0.0,31.7,72.7,1003.6,349.2,0.6,1.4,351.2,0.00,26.2,28.9,"18:30:16",1
"23/08/19","18:50",0.0,31.4,74.0,1003.8,313.9,0.6,1.6,335.9,0.00,26.2,28.8,"18:47:04",1
"23/08/19","19:00",0.0,31.2,74.6,1003.6,282.1,0.7,1.3,287.3,0.00,26.2,28.8,"18:50:32",1
"23/08/19","19:10",0.0,31.0,75.4,1004.1,335.9,0.6,1.8,330.0,0.00,26.2,28.8,"19:05:44",1
"23/08/19","19:20",0.0,30.9,76.6,1004.1,343.8,1.2,2.1,335.2,0.00,26.3,28.8,"19:12:16",1
"23/08/19","19:30",0.0,30.8,77.4,1004.3,359.9,1.0,1.7,346.4,0.00,26.4,28.7,"19:20:16",1
"23/08/19","19:40",0.0,30.7,77.1,1004.3,19.3,0.8,3.5,24.5,0.00,26.3,28.6,"19:39:36",1
"23/08/19","19:50",0.0,31.0,74.5,1004.1,30.8,1.0,2.8,32.2,0.00,26.0,28.6,"19:43:12",1
"23/08/19","20:00",0.0,31.2,72.4,1004.8,41.8,0.6,1.2,75.4,0.00,25.7,28.5,"19:54:08",1
"23/08/19","20:10",0.0,31.3,71.8,1004.5,26.1,0.6,2.2,13.3,0.00,25.6,28.5,"20:06:32",1
"23/08/19","20:20",0.0,31.1,73.1,1004.8,1.4,0.5,1.2,61.7,0.00,25.7,28.5,"20:16:56",1
"23/08/19","20:30",0.0,30.5,75.2,1004.3,344.2,0.6,1.0,353.3,0.00,25.6,28.5,"20:20:40",1
"23/08/19","20:40",0.0,30.3,76.6,1004.3,6.9,0.7,1.2,5.5,0.00,25.8,28.4,"20:34:08",1
"23/08/19","20:50",0.0,29.9,77.9,1004.3,337.1,0.5,1.1,356.7,0.00,25.7,28.3,"20:44:08",1
"23/08/19","21:00",0.0,29.5,78.8,1004.1,317.2,0.3,0.8,338.0,0.00,25.5,28.2,"20:56:08",1
"23/08/19","21:10",0.0,29.3,79.4,1005.0,316.8,0.3,0.8,343.3,0.00,25.4,28.2,"21:01:52",1
"23/08/19","21:20",0.0,29.2,80.2,1005.0,315.9,0.3,1.1,347.3,0.00,25.5,28.3,"21:18:16",1
"23/08/19","21:30",0.0,29.2,80.9,1005.2,304.3,0.2,0.8,353.8,0.00,25.6,28.1,"21:26:00",1
"23/08/19","21:40",0.0,29.2,81.5,1004.8,266.8,0.3,0.9,255.2,0.00,25.7,28.1,"21:37:44",1
"23/08/19","21:50",0.0,29.1,82.3,1004.8,348.8,0.5,0.9,347.0,0.00,25.8,28.1,"21:43:52",1
"23/08/19","22:00",0.0,28.9,82.8,1005.0,305.4,0.6,1.1,297.0,0.00,25.7,28.0,"21:51:28",1
"23/08/19","22:10",0.0,28.8,83.4,1004.8,343.0,1.0,1.8,334.8,0.00,25.7,28.1,"22:08:24",1
"23/08/19","22:20",0.0,28.6,83.7,1005.2,318.9,0.6,1.3,338.2,0.00,25.6,27.8,"22:11:04",1
"23/08/19","22:30",0.0,28.6,83.9,1005.0,289.1,0.5,1.1,325.5,0.00,25.6,28.0,"22:21:52",1
"23/08/19","22:40",0.0,28.5,84.2,1005.0,305.8,0.7,1.4,333.3,0.00,25.6,27.9,"22:37:20",1
"23/08/19","22:50",0.0,28.4,84.3,1005.0,321.9,1.0,1.9,354.6,0.00,25.5,28.0,"22:45:36",1
"23/08/19","23:00",0.0,28.4,84.4,1005.2,321.8,0.8,1.4,283.1,0.00,25.6,28.1,"22:51:44",1
"23/08/19","23:10",0.0,28.2,84.7,1005.2,305.3,0.7,1.6,318.4,0.00,25.4,27.8,"23:04:40",1
"23/08/19","23:20",0.0,28.0,85.1,1005.5,290.8,0.6,1.2,305.2,0.00,25.3,27.7,"23:11:44",1
"23/08/19","23:30",0.0,28.1,85.4,1005.5,302.6,0.8,1.7,332.9,0.00,25.5,27.8,"23:21:36",1
"23/08/19","23:40",0.0,28.0,85.5,1005.5,322.9,1.3,2.6,347.9,0.00,25.4,27.7,"23:35:52",1
"23/08/19","23:50",0.0,28.1,85.6,1005.2,330.3,1.6,2.6,343.9,0.00,25.5,27.7,"23:47:52",1
"23/08/19","24:00",0.0,27.9,85.8,1005.7,335.1,1.6,3.2,342.1,0.00,25.3,27.8,"23:53:44",1
